Tracking 29528 objects as of 12-Sep-2024
HD Live streaming from Space Station
objects crossing your sky now

FENGYUN 1C DEB

Track FENGYUN 1C DEB now!
10-day predictions


NORAD ID: 32123
Int'l Code: 1999-025CRR
Perigee: 587.0 km
Apogee: 822.7 km
Inclination: 98.9 °
Period: 98.7 minutes
Semi major axis: 7075 km
RCS: 0.0018 m2 (small)
Launch date: May 10, 1999
Source: People's Republic of China (PRC)
Launch site: Taiyaun Space Center, China (TSC)

Note: This is SATELLITE DEBRIS
Your satellite tracking list
Your tracking list is empty




NASA's NSSDC Master Catalog

Two Line Element Set (TLE):
1 32123U 99025CRR 24256.60116992  .00010904  00000-0  19409-2 0  9998
2 32123  98.8883  23.6556 0166607 248.0016 175.6675 14.58594783647177
Source of the keplerian elements: AFSPC